Hourly Weather Kitki

Today, 27 October, Tuesday

Time Temperature Precipitation Wind Pressure Humidity
00:00 +12°C° 0 mm 4 mps 741 mmHg 84%
01:00 +12°C° 0 mm 4 mps 742 mmHg 83%
02:00 +11°C° 0 mm 4 mps 742 mmHg 85%
03:00 +11°C° 0 mm 3 mps 742 mmHg 87%
04:00 +10°C° 0 mm 3 mps 742 mmHg 90%
05:00 +10°C° 0 mm 2 mps 742 mmHg 90%
06:00 +12°C° 0 mm 2 mps 743 mmHg 89%
07:00 +12°C° 0 mm 2 mps 743 mmHg 89%
08:00 +13°C° 0 mm 2 mps 743 mmHg 86%
09:00 +13°C° 0 mm 3 mps 743 mmHg 82%
10:00 +14°C° 0 mm 4 mps 744 mmHg 79%
11:00 +14°C° 0 mm 4 mps 744 mmHg 79%
12:00 +13°C° 0 mm 4 mps 744 mmHg 78%
13:00 +13°C° 0 mm 4 mps 744 mmHg 78%
14:00 +13°C° 0 mm 3 mps 744 mmHg 80%
15:00 +12°C° 0 mm 3 mps 744 mmHg 82%
16:00 +13°C° 0 mm 2 mps 745 mmHg 84%
17:00 +12°C° 0.1 mm 2 mps 745 mmHg 84%
18:00 +12°C° 0.1 mm 2 mps 745 mmHg 85%
19:00 +12°C° 0.1 mm 2 mps 745 mmHg 86%
20:00 +10°C° 0.6 mm 2 mps 745 mmHg 86%
21:00 +10°C° 0.6 mm 2 mps 745 mmHg 86%
22:00 +10°C° 0.6 mm 3 mps 746 mmHg 87%
23:00 +9°C° 0.3 mm 3 mps 746 mmHg 87%

Tomorrow, 28 October, Wednesday

Time Temperature Precipitation Wind Pressure Humidity
00:00 +9°C° 0.3 mm 2 mps 746 mmHg 88%
01:00 +9°C° 0.3 mm 2 mps 747 mmHg 88%
02:00 +8°C° 0 mm 2 mps 747 mmHg 89%
03:00 +8°C° 0 mm 2 mps 747 mmHg 89%
04:00 +7°C° 0 mm 2 mps 746 mmHg 90%
05:00 +7°C° 0 mm 2 mps 747 mmHg 91%
06:00 +7°C° 0 mm 2 mps 747 mmHg 91%
07:00 +7°C° 0 mm 3 mps 747 mmHg 91%
08:00 +8°C° 0 mm 3 mps 747 mmHg 85%
09:00 +10°C° 0 mm 4 mps 747 mmHg 79%
10:00 +11°C° 0 mm 4 mps 747 mmHg 73%
11:00 +12°C° 0 mm 5 mps 747 mmHg 68%
12:00 +13°C° 0 mm 5 mps 747 mmHg 62%
13:00 +13°C° 0 mm 5 mps 747 mmHg 57%
14:00 +13°C° 0 mm 4 mps 747 mmHg 61%
15:00 +12°C° 0 mm 4 mps 747 mmHg 65%
16:00 +11°C° 0 mm 3 mps 747 mmHg 70%
17:00 +11°C° 0 mm 3 mps 747 mmHg 71%
18:00 +11°C° 0 mm 3 mps 747 mmHg 71%
19:00 +10°C° 0 mm 3 mps 747 mmHg 72%
20:00 +10°C° 0 mm 3 mps 747 mmHg 72%
21:00 +10°C° 0 mm 3 mps 747 mmHg 72%
22:00 +10°C° 0 mm 3 mps 747 mmHg 72%
23:00 +9°C° 0 mm 3 mps 747 mmHg 74%

Day after tomorrow, 29 October, Thursday

Time Temperature Precipitation Wind Pressure Humidity
00:00 +9°C° 0 mm 3 mps 747 mmHg 77%
01:00 +8°C° 0 mm 3 mps 747 mmHg 79%
02:00 +8°C° 0 mm 3 mps 747 mmHg 83%
03:00 +7°C° 0 mm 3 mps 747 mmHg 87%
04:00 +7°C° 0 mm 3 mps 747 mmHg 91%
05:00 +7°C° 0 mm 3 mps 747 mmHg 91%
06:00 +7°C° 0 mm 3 mps 747 mmHg 92%
07:00 +7°C° 0 mm 3 mps 747 mmHg 92%
08:00 +8°C° 0 mm 3 mps 747 mmHg 87%
09:00 +8°C° 0 mm 4 mps 747 mmHg 82%
10:00 +10°C° 0 mm 4 mps 747 mmHg 76%
11:00 +11°C° 0 mm 4 mps 747 mmHg 74%
12:00 +10°C° 0 mm 5 mps 747 mmHg 72%
13:00 +12°C° 0 mm 5 mps 747 mmHg 70%
14:00 +11°C° 0 mm 4 mps 747 mmHg 73%
15:00 +11°C° 0 mm 4 mps 746 mmHg 76%
16:00 +11°C° 0 mm 3 mps 746 mmHg 78%
17:00 +10°C° 0.4 mm 4 mps 746 mmHg 81%
18:00 +10°C° 0.4 mm 4 mps 747 mmHg 85%
19:00 +8°C° 0.4 mm 4 mps 747 mmHg 88%
20:00 +8°C° 0.2 mm 4 mps 747 mmHg 88%
21:00 +7°C° 0.2 mm 4 mps 747 mmHg 89%
22:00 +7°C° 0.2 mm 4 mps 748 mmHg 89%
23:00 +6°C° 0 mm 4 mps 748 mmHg 90%

30 October, Friday

Time Temperature Precipitation Wind Pressure Humidity
00:00 +6°C° 0 mm 4 mps 748 mmHg 91%
01:00 +5°C° 0 mm 3 mps 748 mmHg 91%
02:00 +5°C° 0 mm 4 mps 749 mmHg 92%
03:00 +5°C° 0 mm 4 mps 749 mmHg 93%
04:00 +4°C° 0 mm 4 mps 749 mmHg 93%
05:00 +5°C° 0 mm 4 mps 749 mmHg 92%
06:00 +5°C° 0 mm 4 mps 750 mmHg 91%
07:00 +5°C° 0 mm 4 mps 750 mmHg 90%
08:00 +6°C° 0 mm 4 mps 750 mmHg 88%
09:00 +6°C° 0 mm 4 mps 750 mmHg 85%
10:00 +7°C° 0 mm 4 mps 751 mmHg 82%
11:00 +7°C° 0 mm 4 mps 751 mmHg 80%
12:00 +8°C° 0 mm 4 mps 751 mmHg 77%
13:00 +8°C° 0 mm 4 mps 751 mmHg 74%
14:00 +9°C° 0 mm 3 mps 751 mmHg 76%
15:00 +9°C° 0 mm 3 mps 751 mmHg 78%
16:00 +9°C° 0 mm 2 mps 751 mmHg 80%
17:00 +8°C° 0 mm 2 mps 751 mmHg 82%
18:00 +7°C° 0 mm 2 mps 751 mmHg 85%
19:00 +7°C° 0 mm 2 mps 751 mmHg 87%
20:00 +6°C° 0 mm 2 mps 752 mmHg 88%
21:00 +6°C° 0 mm 2 mps 752 mmHg 88%
22:00 +5°C° 0 mm 2 mps 752 mmHg 89%
23:00 +5°C° 0 mm 2 mps 752 mmHg 90%

31 October, Saturday

Time Temperature Precipitation Wind Pressure Humidity
00:00 +5°C° 0 mm 2 mps 753 mmHg 90%
01:00 +5°C° 0 mm 2 mps 753 mmHg 91%
02:00 +5°C° 0 mm 1 mps 753 mmHg 92%
03:00 +5°C° 0 mm 1 mps 753 mmHg 92%
04:00 +5°C° 0 mm 1 mps 754 mmHg 92%
05:00 +5°C° 0 mm 1 mps 754 mmHg 92%
06:00 +5°C° 0 mm 1 mps 754 mmHg 92%
07:00 +5°C° 0 mm 1 mps 755 mmHg 92%
08:00 +6°C° 0 mm 1 mps 755 mmHg 87%
09:00 +7°C° 0 mm 0 mps 755 mmHg 81%
10:00 +8°C° 0 mm 0 mps 756 mmHg 76%
11:00 +9°C° 0 mm 0 mps 756 mmHg 73%
12:00 +11°C° 0 mm 1 mps 756 mmHg 70%
13:00 +11°C° 0 mm 1 mps 756 mmHg 66%
14:00 +10°C° 0 mm 1 mps 756 mmHg 70%
15:00 +10°C° 0 mm 1 mps 756 mmHg 74%
16:00 +9°C° 0 mm 1 mps 756 mmHg 78%
17:00 +8°C° 0 mm 1 mps 756 mmHg 80%
18:00 +8°C° 0 mm 1 mps 756 mmHg 83%
19:00 +7°C° 0 mm 1 mps 757 mmHg 85%
20:00 +7°C° 0 mm 1 mps 757 mmHg 86%
21:00 +6°C° 0 mm 1 mps 757 mmHg 87%
22:00 +6°C° 0 mm 1 mps 757 mmHg 88%
23:00 +5°C° 0 mm 2 mps 757 mmHg 89%

1 November, Sunday

Time Temperature Precipitation Wind Pressure Humidity
00:00 +5°C° 0 mm 2 mps 757 mmHg 90%
01:00 +4°C° 0 mm 2 mps 757 mmHg 90%
02:00 +4°C° 0 mm 2 mps 756 mmHg 90%
03:00 +4°C° 0 mm 2 mps 756 mmHg 91%
04:00 +4°C° 0 mm 2 mps 756 mmHg 91%
05:00 +4°C° 0 mm 2 mps 756 mmHg 91%
06:00 +3°C° 0 mm 2 mps 756 mmHg 91%
07:00 +4°C° 0 mm 1 mps 756 mmHg 91%
08:00 +5°C° 0 mm 2 mps 756 mmHg 85%
09:00 +6°C° 0 mm 2 mps 756 mmHg 79%
10:00 +8°C° 0 mm 3 mps 755 mmHg 73%
11:00 +8°C° 0 mm 3 mps 755 mmHg 69%
12:00 +9°C° 0 mm 3 mps 755 mmHg 65%
13:00 +10°C° 0 mm 3 mps 755 mmHg 61%
14:00 +9°C° 0 mm 3 mps 754 mmHg 66%
15:00 +8°C° 0 mm 2 mps 754 mmHg 70%
16:00 +7°C° 0 mm 2 mps 754 mmHg 75%
17:00 +7°C° 0 mm 2 mps 754 mmHg 77%
18:00 +6°C° 0 mm 2 mps 754 mmHg 79%
19:00 +6°C° 0 mm 2 mps 754 mmHg 81%
20:00 +5°C° 0 mm 2 mps 754 mmHg 83%
21:00 +5°C° 0 mm 2 mps 754 mmHg 86%
22:00 +5°C° 0 mm 2 mps 754 mmHg 88%
23:00 +5°C° 0 mm 2 mps 754 mmHg 88%
Show more